This demonstration page uses our WeatherBlox Daily Observations layout. Learn more.

Left ArrowRight Arrow

Hourly Observations for May 3, 2022

Temp ( °F °C ) Dew Point ( °F °C ) Humidity (%) Winds ( mph kmh ) Pressure ( in mb ) Visibility ( mi km ) Precip ( " mm )
12:53 am 00:53 Clear 49 9.4 38 3.3 66 66 E 13 20 29.77 1008 10 16 0.00 0.00
1:53 am 01:53 Cloudy 50 10 39 3.9 66 66 ENE 8 13 29.78 1008 10 16 0.00 0.00
2:53 am 02:53 Partly Cloudy 48 8.9 39 3.9 71 71 ENE 12 19 29.78 1009 10 16 0.00 0.00
3:53 am 03:53 Clear 47 8.3 39 3.9 74 74 ENE 9 15 29.79 1009 10 16 0.00 0.00
4:53 am 04:53 Clear 44 6.7 38 3.3 79 79 ENE 9 15 29.80 1009 10 16 0.00 0.00
5:53 am 05:53 Mostly Cloudy 45 7.2 38 3.3 77 77 ENE 9 15 29.80 1009 10 16 0.00 0.00
6:53 am 06:53 Partly Cloudy 45 7.2 39 3.9 80 80 ENE 7 11 29.83 1010 10 16 0.00 0.00
7:53 am 07:53 Mostly Cloudy 48 8.9 38 3.3 68 68 NE 14 22 29.85 1011 10 16 0.00 0.00
8:53 am 08:53 Cloudy 51 10.6 38 3.3 61 61 E 14 22 29.87 1011 10 16 0.00 0.00
9:53 am 09:53 Cloudy 54 12.2 38 3.3 55 55 ENE 13 20 29.88 1012 10 16 0.00 0.00
10:53 am 10:53 Mostly Cloudy 58 14.4 38 3.3 48 48 E 10 17 29.88 1012 10 16 0.00 0.00
11:53 am 11:53 Cloudy 59 15 37 2.8 44 44 E 13 20 29.88 1012 10 16 0.00 0.00
12:53 pm 12:53 Sunny 63 17.2 36 2.2 37 37 ENE 8 13 29.88 1012 10 16 0.00 0.00
1:53 pm 13:53 Sunny 65 18.3 34 1.1 32 32 E 12 19 29.86 1011 10 16 0.00 0.00
2:53 pm 14:53 Sunny 67 19.4 34 1.1 30 30 NE 10 17 29.86 1011 10 16 0.00 0.00
3:53 pm 15:53 Sunny 68 20 31 -0.6 25 25 VRB 3 6 29.85 1011 10 16 0.00 0.00
4:53 pm 16:53 Sunny 70 21.1 30 -1.1 23 23 NE 9 15 29.86 1011 10 16 0.00 0.00
5:53 pm 17:53 Partly Cloudy 67 19.4 29 -1.7 24 24 NE 6 9 29.87 1011 10 16 0.00 0.00
6:53 pm 18:53 Sunny 68 20 29 -1.7 23 23 N 6 9 29.87 1012 10 16 0.00 0.00
7:53 pm 19:53 Partly Cloudy 65 18.3 31 -0.6 28 28 E 5 7 29.88 1012 10 16 0.00 0.00
8:53 pm 20:53 Clear 55 12.8 32 0 42 42 ESE 9 15 29.91 1013 10 16 0.00 0.00
9:53 pm 21:53 Clear 53 11.7 32 0 45 45 SE 3 6 29.92 1013 10 16 0.00 0.00
10:53 pm 22:53 Clear 52 11.1 33 0.6 49 49 N 5 7 29.92 1013 10 16 0.00 0.00
11:53 pm 23:53 Clear 50 10 33 0.6 52 52 Calm 29.93 1014 10 16 0.00 0.00

Powered by AerisWeather